x

8461490 - New London, Ct (nlnc3) Weather Station

1:54 - Thu 23rd Mar 2017 All times are EDT. -4 hours from GMT.

  • Wind
    10mph, 16mph gusts
  • Sea Temp 40°f
  • Aire Temp 22°f
  • Sea Pressure 1029.5mb
  • 8461490 - New London, Ct
  • 8461490 - New London, Ct

More Historic Weather Station data

Upgrade to MSW Pro to gain access to the past 30 days of data for over 8000 Wavebouys and Weather Stations around the globe.

Join Pro

Comparision Forecast

View Surf forecast
   
jue 03/23 1:54 10 16 mph 1029.5mb 40f 22f
1:48 8 16 mph 1029.4mb 40f -
1:42 10 16 mph 1029.4mb 40f -
1:36 6 14 mph 1029.4mb 40f -
1:30 7 14 mph 1029.3mb 40f 22f
1:24 6 9 mph 1029.2mb 40f 22f
1:18 5 9 mph 1029.2mb 40f 22f
1:12 5 11 mph 1029.2mb 40f 22f
1:06 6 9 mph 1029.1mb 40f 22f
1:00 7 11 mph 1029mb 40f 22f
12:54 6 9 mph 1028.9mb 40f 22f
12:48 8 15 mph 1028.8mb 40f 22f
12:42 6 14 mph 1028.7mb 40f 22f
12:36 7 13 mph 1028.6mb 40f 22f
12:30 5 8 mph 1028.6mb 40f 23f
12:24 5 11 mph 1028.5mb 40f 23f
12:18 3 11 mph 1028.3mb 40f 23f
12:12 6 9 mph 1028.2mb 40f 23f
12:06 6 9 mph 1028mb 40f 23f
12:00 6 13 mph 1027.9mb 40f 24f
mié 03/22 11:54 6 10 mph 1027.8mb 40f 24f
11:48 6 15 mph 1027.7mb 40f 24f
11:42 7 13 mph 1027.6mb 40f 24f
11:36 7 14 mph 1027.5mb 40f 24f
11:30 6 16 mph 1027.4mb 40f 24f
11:24 6 13 mph 1027.4mb 40f 24f
11:18 6 11 mph 1027.3mb 40f 24f
11:12 6 10 mph 1027.3mb 40f 24f
11:06 7 13 mph 1027.2mb 40f 24f
11:00 5 11 mph 1027.1mb 41f 24f
10:54 5 14 mph 1027mb 41f 24f
10:48 8 16 mph 1026.9mb 41f 25f
10:42 7 17 mph 1026.9mb 41f 25f
10:36 8 16 mph 1026.8mb 41f 25f
10:30 8 14 mph 1026.7mb 41f 25f
10:24 10 16 mph 1026.7mb 41f 25f
10:18 11 17 mph 1026.5mb 41f 25f
10:12 13 16 mph 1026.5mb 41f 25f
10:06 6 16 mph 1026.4mb 41f 25f
10:00 10 15 mph 1026.2mb 41f 25f
9:54 11 16 mph 1026.2mb 41f 25f
9:48 13 18 mph 1026.1mb 41f 26f
9:42 7 16 mph 1026.1mb 41f 26f
9:36 14 20 mph 1025.9mb 41f 26f
9:30 16 22 mph 1025.9mb 41f 26f
9:24 10 21 mph 1025.8mb 41f 26f
9:18 10 17 mph 1025.8mb 41f 26f
9:12 8 15 mph 1025.7mb 41f 26f
9:06 8 15 mph 1025.6mb 41f 26f
9:00 11 16 mph 1025.4mb 41f 26f
8:54 9 20 mph 1025.4mb 41f 26f
8:48 7 13 mph 1025.3mb 41f 26f
8:42 6 18 mph 1025.2mb 41f 26f
8:36 9 17 mph 1025mb 41f 27f
8:30 9 16 mph 1024.8mb 41f 27f
8:24 9 23 mph 1024.7mb 41f 27f
8:18 9 18 mph 1024.6mb 41f 27f
8:12 9 16 mph 1024.5mb 41f 27f
8:06 8 16 mph 1024.3mb 41f 27f
8:00 8 15 mph 1024.2mb 41f 27f
7:48 9 15 mph 1023.8mb 41f 27f
7:42 9 16 mph 1023.6mb 41f 27f
7:36 7 18 mph 1023.5mb 41f 27f
7:30 7 14 mph 1023.3mb 41f 27f
7:24 9 17 mph 1023.2mb 41f 28f
7:18 7 13 mph 1023mb 41f 28f
7:12 9 15 mph 1022.9mb 41f 28f
7:06 6 13 mph 1022.8mb 41f 28f
7:00 9 22 mph 1022.5mb 41f 28f
6:54 6 15 mph 1022.4mb 41f 28f
6:48 9 17 mph 1022.2mb 41f 29f
6:42 8 18 mph 1022mb 41f 29f
6:36 9 18 mph 1021.7mb 41f 29f
6:30 7 20 mph 1021.6mb 41f 29f
6:24 11 24 mph 1021.4mb 41f 29f
6:18 11 18 mph 1021.3mb 41f 30f
6:12 8 20 mph 1021.2mb 41f 30f
6:06 10 17 mph 1021mb 41f 30f
6:00 10 20 mph 1021mb 41f 30f
5:54 14 26 mph 1020.8mb 41f 30f
5:48 10 21 mph 1020.8mb 41f 31f
5:42 15 23 mph 1020.6mb 41f 30f
5:36 9 21 mph 1020.6mb 41f 31f
5:30 11 22 mph 1020.4mb 42f 31f
5:24 18 23 mph 1020.2mb 41f 30f
5:18 14 22 mph 1020.1mb 41f 31f
5:12 14 29 mph 1020mb 41f 31f
5:06 17 24 mph 1019.8mb 41f 30f
5:00 16 24 mph 1019.8mb 41f 31f
4:54 10 22 mph 1019.7mb 42f 31f
4:48 10 21 mph 1019.5mb 42f 31f
4:42 11 25 mph 1019.4mb 41f 31f
4:36 11 22 mph 1019.3mb 42f 31f
4:30 10 20 mph 1019.3mb 42f 31f
4:24 16 26 mph 1019.2mb 42f 31f
4:18 13 21 mph 1019.2mb 42f 31f
4:12 11 17 mph 1019mb 42f 32f
4:06 13 20 mph 1018.9mb 42f 32f
4:00 9 22 mph 1018.9mb 42f 32f
3:54 11 23 mph 1018.8mb 41f 32f
3:48 13 28 mph 1018.9mb 41f 31f
3:42 11 22 mph 1018.8mb 41f 32f
3:36 9 25 mph 1018.7mb 41f 32f
3:30 16 26 mph 1018.6mb 41f 31f
3:24 18 30 mph 1018.3mb 41f 31f
3:18 15 30 mph 1018.3mb 41f 31f
3:12 11 22 mph 1018.3mb 41f 33f
3:06 10 21 mph 1018.2mb 41f 33f
3:00 16 25 mph 1018.2mb 41f 32f
2:54 11 25 mph 1017.8mb 42f 33f
2:48 13 30 mph 1017.9mb 42f 32f
2:42 10 25 mph 1017.8mb 41f 32f
2:36 13 22 mph 1017.9mb 41f 32f
2:30 13 22 mph 1017.9mb 41f 32f
2:24 15 26 mph 1017.8mb 41f 32f
2:18 15 32 mph 1017.6mb 41f 31f
2:12 14 30 mph 1017.6mb 42f 32f
2:06 14 24 mph 1017.7mb 42f 33f
2:00 14 26 mph 1017.5mb 41f 32f
1:54 10 30 mph 1017.4mb 41f 34f
1:48 11 25 mph 1017.4mb 41f 33f
1:42 14 32 mph 1017.1mb 42f 33f
1:36 11 22 mph 1017mb 42f 34f
1:30 14 23 mph 1016.9mb 42f 34f
1:24 15 26 mph 1016.8mb 42f 34f
1:18 13 25 mph 1016.7mb 41f 34f
1:12 18 28 mph 1016.5mb 41f 33f
1:06 17 30 mph 1016.3mb 41f 33f
1:00 13 21 mph 1016.1mb 42f 35f
12:54 13 24 mph 1016.1mb 42f 35f
12:48 21 29 mph 1016mb 42f 33f
12:42 16 23 mph 1016.1mb 41f 33f
12:36 14 24 mph 1016.1mb 42f 35f
12:30 9 28 mph 1016.1mb 42f 35f
12:24 18 26 mph 1016mb 42f 33f
12:18 11 21 mph 1016mb 42f 34f
12:12 13 26 mph 1015.9mb 42f 34f
12:06 16 25 mph 1015.8mb 42f 34f
12:00 14 26 mph 1015.5mb 41f 33f
11:54 16 22 mph 1015.5mb 41f 34f
11:48 14 29 mph 1015.4mb 41f 34f
11:42 9 23 mph 1015.3mb 41f 35f
11:36 11 22 mph 1015.2mb 42f 35f
11:30 14 26 mph 1015.1mb 41f 34f
11:24 13 22 mph 1014.9mb 41f 35f
11:18 10 22 mph 1014.9mb 41f 35f
11:12 10 23 mph 1014.9mb 41f 36f
11:06 15 24 mph 1014.8mb 41f 35f
11:00 8 22 mph 1014.7mb 41f 36f
10:54 10 24 mph 1014.7mb 41f 35f
10:48 15 28 mph 1014.6mb 41f 35f
10:42 11 23 mph 1014.6mb 41f 36f
10:36 7 25 mph 1014.7mb 41f 36f
10:30 14 25 mph 1014.7mb 41f 35f
10:24 15 24 mph 1014.7mb 41f 35f
10:18 14 20 mph 1014.5mb 41f 35f
10:12 10 23 mph 1014.3mb 41f 36f
10:06 16 22 mph 1014.1mb 41f 35f
10:00 14 30 mph 1013.9mb 41f 35f
9:54 17 29 mph 1013.8mb 41f 35f
9:48 14 29 mph 1013.7mb 41f 36f
9:42 16 23 mph 1013.6mb 41f 36f
9:36 11 22 mph 1013.4mb 41f 36f
9:30 14 26 mph 1013.3mb 40f 36f
9:24 14 22 mph 1013.2mb 40f 36f
9:18 8 13 mph 1013.2mb 40f 36f
9:12 9 17 mph 1013.1mb 40f 35f
9:06 10 15 mph 1013mb 40f 35f
9:00 11 21 mph 1013mb 40f 35f
8:54 20 25 mph 1012.6mb 40f 36f
8:48 10 22 mph 1012.3mb 40f 39f
8:42 11 18 mph 1011.9mb 40f 40f
8:36 11 16 mph 1011.8mb 40f 40f
8:30 6 17 mph 1011.7mb 40f 41f
8:24 9 14 mph 1011.6mb 40f 40f
8:18 8 13 mph 1011.5mb 40f 40f
8:12 7 14 mph 1011.4mb 40f 40f
8:06 5 14 mph 1011.4mb 40f 40f
8:00 8 14 mph 1011.4mb 40f 39f
7:54 6 14 mph 1011.3mb 40f 39f
7:48 7 14 mph 1011.3mb 40f 39f
7:42 7 11 mph 1011.4mb 40f 39f
7:36 5 10 mph 1011.4mb 40f 39f
7:30 3 8 mph 1011.4mb 40f 39f
7:24 5 7 mph 1011.6mb 40f 39f
7:18 5 8 mph 1011.6mb 40f 39f
7:12 5 8 mph 1011.5mb 40f 38f
7:06 2 7 mph 1011.5mb 40f 38f
7:00 3 6 mph 1011.4mb 40f 38f
6:54 3 6 mph 1011.2mb 40f 38f
6:48 3 7 mph 1011.1mb 40f 38f
6:42 3 8 mph 1011mb 40f 38f
6:36 2 5 mph 1010.9mb 40f 38f
6:30 2 9 mph 1010.8mb 40f 39f
6:24 5 7 mph 1010.7mb 40f 39f
6:18 5 9 mph 1010.6mb 40f 39f
6:12 5 10 mph 1010.4mb 40f 39f
6:06 3 8 mph 1010.3mb 40f 39f
6:00 5 8 mph 1010.2mb 40f 39f
5:54 6 10 mph 1010.1mb 40f 40f
5:48 5 10 mph 1010.1mb 40f 40f
5:42 3 13 mph 1010.1mb 40f 40f
5:36 6 11 mph 1010mb 40f 40f
5:30 6 9 mph 1010mb 40f 40f
5:24 2 7 mph 1009.8mb 40f 40f
5:18 3 6 mph 1009.7mb 40f 40f
5:12 3 6 mph 1009.6mb 40f 40f
5:06 3 6 mph 1009.5mb 40f 40f
5:00 5 8 mph 1009.4mb 40f 39f
4:54 5 7 mph 1009.4mb 40f 39f
4:48 5 8 mph 1009.3mb 40f 39f
4:42 5 6 mph 1009.3mb 40f 39f
4:36 5 6 mph 1009.3mb 40f 39f
4:30 5 7 mph 1009.3mb 40f 40f
4:24 3 6 mph 1009.3mb 40f 39f
4:18 5 7 mph 1009.3mb 40f 39f
4:12 3 6 mph 1009.2mb 40f 40f
4:06 5 7 mph 1009.1mb 40f 40f
4:00 2 5 mph 1009.1mb 40f 40f
3:54 2 5 mph 1009mb 40f 40f
3:48 2 7 mph 1008.9mb 40f 39f
3:42 2 3 mph 1009mb 40f 38f
3:36  -  mph 1009mb 40f 38f
3:30  -  1 mph 1009mb 40f 38f
3:24  -  1 mph 1009mb 40f 38f
3:18 1 3 mph 1009.1mb 40f 39f
3:12 1 3 mph 1009.2mb 40f 40f
3:06 2 3 mph 1009.2mb 40f 39f
3:00 1 3 mph 1009.3mb 40f 40f
2:54 1 2 mph 1009.4mb 40f 40f
2:48  -  mph 1009.4mb 40f -
2:42  -  mph 1009.5mb 40f -
2:36  -  1 mph 1009.5mb 40f -
2:30  -  2 mph 1009.6mb 40f 40f
2:24 2 3 mph 1009.7mb 40f 41f
2:18  -  2 mph 1009.8mb 40f 40f
2:12 1 2 mph 1009.9mb 40f 41f
2:06  -  1 mph 1009.9mb 40f 40f
2:00  -  2 mph 1010mb 40f 40f
1:54 2
mph
1010.1mb 40f 41f
1:48 2
mph
- - -
1:42  -  1 mph - - -
1:36  -  1 mph - - -
1:30  -  mph 1010mb 40f 41f
1:24  -  1 mph 1010mb 40f 42f
1:18  -  2 mph 1010mb 40f 42f
1:12 1 2 mph 1010mb 40f 43f
1:06 2
mph
1009.9mb 40f 43f
1:00 2 3 mph 1009.9mb 40f 43f
12:54 2 5 mph 1009.9mb 40f 43f
12:48 3 6 mph 1009.9mb 40f 44f
12:42 6 7 mph 1009.8mb 40f 44f
12:36 5 6 mph 1009.9mb 40f 44f
12:30 5 6 mph 1009.9mb 40f 44f
12:24 5 7 mph 1009.9mb 40f 44f
12:18 3 8 mph 1010mb 40f 45f
12:12 7 9 mph 1010mb 40f 45f
12:06 6 8 mph 1010.1mb 40f 46f
12:00 7 9 mph 1010.2mb 40f 46f
mar 03/21 11:54 7 9 mph 1010.2mb 40f 46f
11:48 7 9 mph 1010.3mb 40f 46f
11:42 6 9 mph 1010.4mb 40f 46f
11:36 6 8 mph 1010.4mb 40f 46f
11:30 6 9 mph 1010.4mb 40f 46f
11:24 7 10 mph 1010.4mb 40f 46f
11:18 8 11 mph 1010.4mb 40f 46f
11:12 8 10 mph 1010.4mb 40f 46f
11:06 6 10 mph 1010.4mb 40f 46f
11:00 6 10 mph 1010.5mb 40f 46f
10:54 8 10 mph 1010.7mb 40f 47f
10:48 7 9 mph 1010.8mb 40f 47f
10:42 8 9 mph 1010.8mb 40f 47f
10:36 7 9 mph 1010.9mb 40f 47f
10:30 5 9 mph 1010.8mb 40f 47f
10:24 3 6 mph 1010.8mb 40f 46f
10:18 5 7 mph 1010.7mb 40f 46f
10:12 5 8 mph 1010.7mb 40f 46f
10:06 6 8 mph 1010.6mb 40f 47f
10:00 3 8 mph 1010.5mb 40f 47f
9:54 2 5 mph 1010.4mb 40f 46f
9:48 1 6 mph 1010.4mb 40f 46f
9:42 3 7 mph 1010.3mb 40f 46f
9:36 2 5 mph 1010.3mb 40f 46f
9:30 3 7 mph 1010.3mb 40f 46f
9:24 5 7 mph 1010.4mb 40f 46f
9:18 3 6 mph 1010.3mb 40f 46f
9:12 2 6 mph 1010.3mb 40f 46f
9:06 3 7 mph 1010.3mb 40f 46f
9:00 6 8 mph 1010.3mb 40f 46f
8:54 6 8 mph 1010.2mb 40f 47f
8:48 6 8 mph 1010.2mb 40f 47f
8:42 6 7 mph 1010mb 40f 47f
8:36 3 7 mph 1009.9mb 40f 47f
8:30 3 6 mph 1009.8mb 40f 47f
8:24 5 6 mph 1009.7mb 40f 47f
8:18 3 7 mph 1009.6mb 40f 47f
8:12 7 9 mph 1009.6mb 40f 46f
8:06 5 7 mph 1009.5mb 40f 48f
8:00 2 5 mph 1009.4mb 40f 49f
7:54 3 6 mph 1009.4mb 40f 49f
7:48 2 5 mph 1009.4mb 40f 49f
7:42 1 3 mph 1009.4mb 40f 49f
7:36 2 5 mph 1009.5mb 40f 49f
7:30 3 6 mph 1009.5mb 40f 49f
7:24 5 8 mph 1009.4mb 40f 50f
7:18 5 7 mph 1009.4mb 40f 50f
7:12 5 8 mph 1009.4mb 40f 50f
7:06 5 10 mph 1009.3mb 40f 50f
7:00 6 9 mph 1009.2mb 40f 50f
6:54 5 9 mph 1009.3mb 40f 51f
6:48 6 8 mph 1009.1mb 40f 51f
6:42 6 9 mph 1009mb 40f 51f
6:36 7 9 mph 1009mb 40f 51f
6:30 6 14 mph 1009mb 40f 51f
6:24 8 14 mph 1008.9mb 40f 51f
6:18 8 14 mph 1008.9mb 40f 52f
6:12 10 15 mph 1008.9mb 40f 52f
6:06 10 15 mph 1008.8mb 40f 52f
6:00 8 15 mph 1008.8mb 40f 52f
5:54 9 14 mph 1008.7mb 40f 52f
5:48 7 13 mph 1008.7mb 40f 53f
5:42 9 14 mph 1008.7mb 40f 52f
5:36 7 14 mph 1008.7mb 40f 52f
5:30 10 15 mph 1008.6mb 40f 53f
5:24 7 11 mph 1008.7mb 40f 53f
5:18 7 11 mph 1008.7mb 40f 53f
5:12 9 13 mph 1008.7mb 40f 52f
5:06 9 14 mph 1008.8mb 40f 52f
5:00 9 16 mph 1008.8mb 40f 53f
4:54 10 18 mph 1008.9mb 40f 53f
4:48 8 14 mph 1009mb 40f 53f
4:42 11 14 mph 1008.9mb 40f 52f
4:36 10 14 mph 1009mb 40f 53f
4:30 9 16 mph 1009.1mb 40f 52f
4:24 13 16 mph 1009.1mb 40f 52f
4:18 9 15 mph 1009.1mb 40f 52f
4:12 8 17 mph 1009.2mb 40f 52f
4:06 11 17 mph 1009.2mb 40f 51f
4:00 10 15 mph 1009.3mb 40f 51f
3:54 13 20 mph 1009.4mb 40f 51f
3:48 9 18 mph 1009.5mb 40f 52f
3:42 11 17 mph 1009.5mb 40f 51f
3:36 13 17 mph 1009.6mb 40f 51f
3:30 11 20 mph 1009.7mb 40f 51f
3:24 13 18 mph 1009.8mb 40f 51f
3:18 14 17 mph 1009.8mb 40f 51f
3:12 11 23 mph 1009.7mb 40f 51f
3:06 13 24 mph 1009.8mb 40f 51f
3:00 14 21 mph 1009.8mb 40f 51f
2:54 8 20 mph 1009.8mb 40f 53f
2:48 13 17 mph 1009.8mb 40f 51f
2:42 10 14 mph 1009.8mb 40f 52f
2:36 10 15 mph 1009.9mb 40f 51f
2:30 11 16 mph 1010mb 40f 51f
2:24 9 16 mph 1010.1mb 40f 51f
2:18 13 17 mph 1010.2mb 40f 50f
2:12 11 18 mph 1010.3mb 40f 51f
2:06 16 21 mph 1010.3mb 40f 49f
2:00 11 15 mph 1010.5mb 40f 50f
1:54 9 14 mph 1010.6mb 40f 50f
1:48 13 16 mph 1010.6mb 40f 49f
1:42 11 14 mph 1010.7mb 40f 49f
1:36 9 13 mph 1010.9mb 40f 49f
1:30 9 14 mph 1010.9mb 40f 49f
1:24 10 13 mph 1011mb 40f 49f
1:18 9 11 mph 1011.2mb 40f 49f
1:12 10 14 mph 1011.2mb 40f 47f
1:06 13 14 mph 1011.2mb 40f 46f
1:00 13 14 mph 1011.4mb 40f 46f
12:54 9 10 mph 1011.4mb 40f 46f
12:48 9 10 mph 1011.5mb 40f 46f
12:42 8 10 mph 1011.5mb 40f 47f
12:36 9
mph
1011.6mb 40f 47f
12:30 8 9 mph 1011.7mb 40f 46f
12:24 7 8 mph 1011.6mb 40f 46f
12:18 5 7 mph 1011.7mb 40f 47f
12:12 6 7 mph 1011.7mb 40f 47f
12:06 7 8 mph 1011.7mb 40f 46f
12:00 7 8 mph 1011.8mb 40f 46f
11:54 8 9 mph 1011.9mb 40f 46f
11:48 8 9 mph 1011.9mb 40f 45f
11:42 8 9 mph 1012mb 40f 44f
11:36 6 8 mph 1012.1mb 40f 44f
11:30 5 6 mph 1012.1mb 40f 45f
11:24 5
mph
1012.2mb 40f 45f
11:18 5 6 mph 1012.3mb 40f 45f
11:12 6
mph
1012.4mb 40f 45f
11:06 5 6 mph 1012.3mb 40f 44f
11:00 6 7 mph 1012.2mb 40f 44f
10:54 5 6 mph 1012.2mb 40f 44f
10:48 1 2 mph 1012.2mb 40f 45f
10:42  -  1 mph 1012.3mb 40f 45f
10:36  -  2 mph 1012.4mb 40f 45f
10:30 2
mph
1012.5mb 40f 44f
10:24 1 2 mph 1012.4mb 40f 44f
10:18  -  2 mph 1012.4mb 40f 44f
10:12 1 3 mph 1012.4mb 40f 44f
10:06 2
mph
1012.4mb 40f 44f
10:00 2 3 mph 1012.3mb 40f 44f
9:54 2
mph
1012.2mb 40f 43f
9:48  -  mph 1012.3mb 40f 43f
9:42  -  2 mph 1012.3mb 40f 42f
9:36 2
mph
1012.3mb 40f 42f
9:30 2
mph
1012.3mb 40f 42f
9:24 2 3 mph 1012.3mb 40f 42f
9:18 2 3 mph 1012.3mb 40f 42f
9:12 2
mph
1012.3mb 40f 42f
9:06 1 2 mph 1012.5mb 40f 42f
9:00  -  1 mph 1012.5mb 40f 42f
8:54  -  3 mph 1012.4mb 40f 41f
8:48 2 3 mph 1012.3mb 40f 40f
8:42 3
mph
1012.4mb 40f 40f
8:36  -  1 mph 1012.3mb 40f 40f
8:30  -  1 mph 1012.2mb 40f 40f
8:24  -  1 mph 1012.3mb 40f 39f
8:18 2
mph
1012.2mb 40f 39f
8:12 1 2 mph 1012.2mb 40f 39f
8:06 1
mph
1012.3mb 40f 39f
8:00  -  1 mph 1012.5mb 40f 38f
7:54 2
mph
1012.6mb 40f 38f
7:48 2 3 mph 1012.5mb 40f 38f
7:42 2
mph
1012.5mb 40f 37f
7:36  -  2 mph 1012.4mb 40f 37f
7:30 2
mph
1012.4mb 40f 37f
7:24 2
mph
1012.5mb 40f 37f
7:18  -  3 mph 1012.4mb 40f 37f
7:12 2 3 mph 1012.3mb 40f 37f
7:06  -  1 mph 1012.5mb 39f 37f
7:00  -  1 mph 1012.5mb 39f 36f
6:54  -  2 mph 1012.4mb 39f 36f
6:48 2 3 mph 1012.5mb 39f 36f
6:42 2 3 mph 1012.4mb 39f 36f
6:36 2 3 mph 1012.3mb 39f 36f
6:30 3 6 mph 1012.3mb 39f 36f
6:24 3 6 mph 1012.2mb 39f 36f
6:18 3 6 mph 1012.4mb 39f 36f
6:12 3 5 mph 1012.4mb 39f 36f
6:06 3 5 mph 1012.3mb 39f 36f
6:00 5 6 mph 1012.2mb 39f 36f
5:54 5 6 mph 1012.3mb 39f 36f
5:48 5 6 mph 1012.2mb 39f 36f
5:42 3 6 mph 1012.1mb 39f 36f
5:36 5 6 mph 1012.1mb 39f 37f
5:30 3 5 mph 1012mb 39f 37f
5:24 3 5 mph 1012mb 39f 37f
5:18 5 6 mph 1011.9mb 40f 37f
5:12 6
mph
1011.8mb 40f 37f
5:06 3 5 mph 1011.9mb 40f 37f
5:00 3 5 mph 1011.8mb 40f 38f
4:54 3 5 mph 1011.9mb 40f 38f
4:48 3
mph
1012.1mb 40f 38f
4:42 2 3 mph 1011.9mb 40f 38f
4:36 2 3 mph 1012mb 40f 38f
4:30 2 3 mph 1012mb 40f 39f
4:24 1 3 mph 1012mb 39f 39f
4:18 2 3 mph 1012mb 39f 39f
4:12 2 3 mph 1012mb 40f 39f
4:06 2 3 mph 1012mb 40f 39f
4:00  -  2 mph 1012mb 40f 40f
3:54 2 3 mph 1012.1mb 39f 40f
3:48 2 5 mph 1012.2mb 40f 40f
3:42 2
mph
1012mb 40f 40f
3:36 2 5 mph 1012.2mb 40f 40f
3:30 3 5 mph 1012.3mb 39f 40f
3:24 1 5 mph 1012.3mb 39f 40f
3:18 3 5 mph 1012.4mb 40f 40f
3:12 2 3 mph 1012.4mb 40f 40f
3:06 2 3 mph 1012.4mb 39f 40f
3:00 2 3 mph 1012.4mb 39f 40f
2:54 1 2 mph 1012.5mb 39f 40f
2:48 1 2 mph 1012.7mb 39f 40f
2:42 2
mph
1012.7mb 40f 40f
2:36 2
mph
1012.8mb 40f 40f
2:30 2
mph
1012.8mb 39f 41f
2:24 1 2 mph 1012.9mb 39f 41f
2:18 1 2 mph 1012.9mb 39f 41f
2:12 2
mph
1012.8mb 39f 41f
2:06 1 2 mph 1012.9mb 39f 41f
2:00 2 3 mph 1012.9mb 39f 40f
1:54 2
mph
1013.1mb 39f 40f
1:48 2 3 mph 1013.1mb 39f 40f
1:42 1 3 mph 1013.2mb 39f 41f
1:36 2 3 mph 1013.1mb 39f 41f
1:30 2 3 mph 1013.1mb 39f 41f
1:24  -  3 mph 1013mb 39f 41f
1:18 2 3 mph 1013mb 39f 41f
1:12 1 2 mph 1013.1mb 39f 42f
1:06 2 3 mph 1013.1mb 39f 42f
1:00 2 3 mph 1013.1mb 39f 41f
12:54 2 3 mph 1013.1mb 39f 41f
12:48 2 5 mph 1013.2mb 39f 42f
12:42 3 5 mph 1013.3mb 39f 42f
12:36 3 5 mph 1013.4mb 39f 41f
12:30 3 6 mph 1013.4mb 39f 41f
12:24 5 6 mph 1013.5mb 39f 40f
12:18 2 3 mph 1013.6mb 39f 40f
12:12 3 6 mph 1013.7mb 39f 40f
12:06 5 7 mph 1013.7mb 39f 41f
12:00 3 6 mph 1013.7mb 39f 41f
lun 03/20 11:54 3 6 mph 1013.7mb 39f 42f
11:48 3 5 mph 1013.8mb 39f 42f
11:42 3 5 mph 1013.8mb 39f 42f
11:36 2 5 mph 1013.9mb 39f 42f
11:30 3 5 mph 1014mb 39f 42f
11:24 2 5 mph 1014mb 40f 42f
11:18 3 5 mph 1014.1mb 40f 42f
11:12 2 5 mph 1014.2mb 40f 41f
11:06 3 5 mph 1014.3mb 40f 41f
11:00 3 5 mph 1014.2mb 40f 42f
10:54 2 3 mph 1014.2mb 40f 42f
10:48 3 6 mph 1014.1mb 40f 42f
10:42 3 5 mph 1014.2mb 40f 42f
10:36 1 3 mph 1014.1mb 40f 42f
10:30 2 3 mph 1014.1mb 40f 42f
10:24 2 3 mph 1014.3mb 40f 42f
10:18 2 3 mph 1014.2mb 40f 43f
10:12 2 3 mph 1014.1mb 40f 43f
10:06 3 5 mph 1013.9mb 40f 43f
10:00 1 3 mph 1013.9mb 40f 43f
9:54 2 3 mph 1013.8mb 40f 44f
9:48 1 3 mph 1013.6mb 40f 44f
9:42 1 2 mph 1013.8mb 40f 44f
9:36 1 2 mph 1013.8mb 40f 45f
9:30 1
mph
1013.8mb 40f 45f
9:24 2 3 mph 1013.7mb 40f 44f
9:18 2 3 mph 1013.8mb 40f 45f
9:12 1 2 mph 1013.9mb 40f 45f
9:06  -  3 mph 1013.9mb 40f 44f
9:00  -  3 mph 1013.9mb 40f 44f
8:54 2 3 mph 1013.9mb 40f 43f
8:48  -  2 mph 1013.9mb 40f 44f
8:42 2 3 mph 1013.9mb 40f 44f
8:36 1 2 mph 1013.8mb 40f 45f
8:30 1 6 mph 1013.8mb 40f 46f
8:24 1 3 mph 1013.8mb 39f 46f
8:18  -  mph 1013.7mb 39f 45f
8:12  -  1 mph 1013.6mb 39f 45f
8:06  -  2 mph 1013.6mb 39f 45f
8:00  -  1 mph 1013.5mb 39f 46f
7:54  -  3 mph 1013.4mb 39f 47f
7:48 3 5 mph 1013.4mb 39f 48f
7:42 2 5 mph 1013.3mb 40f 48f
7:36 2 3 mph 1013.3mb 40f 48f
7:30 2 3 mph 1013.3mb 40f 48f
7:24 1 5 mph 1013.3mb 40f 49f
7:18 3 6 mph 1013.4mb 40f 49f
7:12 3 6 mph 1013.5mb 40f 49f
7:06 2 5 mph 1013.4mb 40f 49f
7:00 2 6 mph 1013.4mb 40f 50f
6:54 3 6 mph 1013.4mb 40f 50f
6:48 3 5 mph 1013.4mb 40f 51f
6:42 3 6 mph 1013.4mb 40f 51f
6:36 3 5 mph 1013.5mb 40f 51f
6:30 5 8 mph 1013.5mb 40f 51f
6:24 3 8 mph 1013.5mb 40f 52f
6:18 3 9 mph 1013.6mb 40f 52f
6:12 6 9 mph 1013.6mb 40f 52f
6:06 7 9 mph 1013.7mb 40f 52f
6:00 5 8 mph 1013.7mb 40f 52f
5:54 7 10 mph 1013.7mb 40f 52f
5:48 7 10 mph 1013.7mb 40f 52f
5:42 8 11 mph 1013.7mb 40f 52f
5:36 8 13 mph 1013.8mb 40f 52f
5:30 9 13 mph 1013.8mb 40f 52f
5:24 9 14 mph 1013.9mb 40f 52f
5:18 11 14 mph 1013.9mb 40f 52f
5:12 10 14 mph 1014mb 40f 52f
5:06 6 13 mph 1014mb 40f 52f
5:00 7 13 mph 1014.1mb 40f 51f
4:54 9 13 mph 1014mb 40f 52f
4:48 7 13 mph 1014.1mb 40f 52f
4:42 10 14 mph 1014.2mb 40f 52f
4:36 9 15 mph 1014.4mb 40f 52f
4:30 10 14 mph 1014.4mb 40f 52f
4:24 8 13 mph 1014.4mb 40f 53f
4:18 6 11 mph 1014.5mb 39f 54f
4:12 5 13 mph 1014.4mb 39f 53f
4:06 9 14 mph 1014.4mb 39f 53f
4:00 8 16 mph 1014.4mb 39f 53f
3:54 9 14 mph 1014.4mb 39f 53f
3:48 9 20 mph 1014.5mb 39f 54f
3:42 7 11 mph 1014.5mb 39f 53f
3:36 6 13 mph 1014.5mb 39f 53f
3:30 11 17 mph 1014.5mb 39f 53f
3:24 9 15 mph 1014.5mb 39f 52f
3:18 6 16 mph 1014.4mb 39f 52f
3:12 7 15 mph 1014.4mb 39f 52f
3:06 10 14 mph 1014.5mb 39f 52f
3:00 7 13 mph 1014.4mb 39f 52f
2:54 7 13 mph 1014.4mb 39f 52f
2:48 9 15 mph 1014.5mb 39f 51f
2:42 6 9 mph 1014.6mb 39f 51f
2:36 6 14 mph 1014.6mb 39f 51f
2:30 6 14 mph 1014.6mb 39f 51f
2:24 5 9 mph 1014.7mb 39f 51f
2:18 5 14 mph 1014.8mb 39f 51f
2:12 6 14 mph 1014.8mb 39f 50f
2:06 9 11 mph 1014.8mb 39f 50f
2:00 5 11 mph 1014.8mb 39f 50f
1:54 3 10 mph 1015mb 39f 50f
1:48 3 14 mph 1015.1mb 39f 50f
1:42 7 13 mph 1015.2mb 39f 49f
1:36 8 15 mph 1015.2mb 39f 49f
1:30 8 11 mph 1015.3mb 39f 49f
1:24 9 16 mph 1015.5mb 39f 48f
1:18 10 14 mph 1015.5mb 39f 48f
1:12 9 17 mph 1015.6mb 39f 48f
1:06 13 16 mph 1015.4mb 39f 48f
1:00 6 17 mph 1015.4mb 39f 48f
12:54 10 14 mph 1015.4mb 39f 47f
12:48 8 18 mph 1015.4mb 39f 47f
12:42 9 17 mph 1015.5mb 39f 47f
12:36 6 15 mph 1015.6mb 39f 47f
12:30 10 16 mph 1015.8mb 39f 46f
12:24 5 16 mph 1015.9mb 39f 47f
12:18 10 20 mph 1016mb 39f 46f
12:12 11 18 mph 1016mb 39f 45f
12:06 9 17 mph 1016.1mb 39f 46f
12:00 10 18 mph 1016.2mb 39f 45f
11:54 9 16 mph 1016.3mb 39f 45f
11:48 5 15 mph 1016.5mb 39f 46f
11:42 7 17 mph 1016.5mb 39f 46f
11:36 7 14 mph 1016.7mb 39f 45f
11:30 9 16 mph 1016.8mb 39f 45f
11:24 10 16 mph 1016.9mb 39f 45f
11:18 11 20 mph 1016.8mb 39f 45f
11:12 10 17 mph 1016.8mb 39f 44f
11:06 9 18 mph 1016.9mb 39f 44f
11:00 6 15 mph 1017.1mb 39f 45f
10:54 5 14 mph 1017mb 39f 45f
10:48 7 15 mph 1017.1mb 39f 44f
10:42 9 16 mph 1017mb 39f 44f
10:36 9 16 mph 1017.1mb 39f 43f
10:30 9 17 mph 1017.3mb 39f 42f
10:24 8 17 mph 1017.4mb 39f 42f
10:18 8 16 mph 1017.5mb 39f 41f
10:12 10 16 mph 1017.6mb 39f 41f
10:06 10 16 mph 1017.6mb 39f 41f
10:00 7 16 mph 1017.6mb 39f 41f
9:54 11 20 mph 1017.6mb 39f 40f
9:48 10 16 mph 1017.7mb 39f 40f
9:42 9 18 mph 1017.8mb 39f 40f
9:36 10 20 mph 1017.8mb 39f 40f
9:30 9 17 mph 1017.9mb 39f 40f
9:24 8 16 mph 1017.8mb 39f 40f
9:18 8 16 mph 1017.8mb 39f 39f
9:12 8 15 mph 1017.9mb 39f 39f
9:06 10 17 mph 1017.9mb 39f 38f
9:00 7 15 mph 1017.9mb 39f 38f
8:54 8 15 mph 1017.9mb 39f 38f
8:48 9 14 mph 1017.8mb 39f 37f
8:42 8 15 mph 1017.9mb 39f 37f
8:36 9 13 mph 1018mb 39f 37f
8:30 5 16 mph 1017.9mb 39f 37f
8:24 8 14 mph 1017.9mb 39f 36f
8:18 7 14 mph 1017.8mb 39f 36f
8:12 6 10 mph 1017.9mb 39f 36f
8:06 2 7 mph 1017.9mb 39f 37f
8:00 3 10 mph 1017.9mb 39f 36f
7:54 5 11 mph 1017.9mb 39f 36f
7:48 7 13 mph 1017.9mb 39f 35f
7:42 7 11 mph 1017.9mb 39f 35f
7:36 7 11 mph 1017.9mb 39f 35f
7:30 7 11 mph 1017.9mb 39f 35f
7:24 7 10 mph 1017.8mb 39f 35f
7:18 6 11 mph 1017.8mb 39f 35f
7:12 6 11 mph 1017.8mb 39f 35f
7:06 7 11 mph 1017.8mb 39f 35f
7:00 5 9 mph 1017.8mb 39f 35f
6:54 5 10 mph 1017.8mb 39f 35f
6:48 6 11 mph 1017.8mb 39f 35f
6:42 6 10 mph 1017.7mb 39f 35f
6:36 7 13 mph 1017.7mb 39f 35f
6:30 6 9 mph 1017.6mb 39f 35f
6:24 7 10 mph 1017.5mb 39f 35f
6:18 7 11 mph 1017.5mb 39f 35f
6:12 7 13 mph 1017.4mb 39f 35f
6:06 8 13 mph 1017.3mb 39f 35f
6:00 7 11 mph 1017.3mb 39f 35f
5:54 6 9 mph 1017.2mb 39f 35f
5:48 7 10 mph 1017.2mb 39f 35f
5:42 5 11 mph 1017.2mb 39f 35f
5:36 6 11 mph 1017.2mb 39f 35f
5:30 7 14 mph 1017.2mb 39f 36f
5:24 6 13 mph 1017.2mb 39f 36f
5:18 7 11 mph 1017.1mb 39f 36f
5:12 9 14 mph 1017.1mb 39f 36f
5:06 8 13 mph 1017.1mb 39f 36f
5:00 7 14 mph 1017.1mb 39f 37f
4:54 7 11 mph 1017.1mb 39f 37f
4:48 7 11 mph 1017.1mb 39f 37f
4:42 6 14 mph 1017.1mb 39f 37f
4:36 7 13 mph 1017.1mb 39f 37f
4:30 7 13 mph 1017.1mb 39f 37f
4:24 7 10 mph 1017mb 39f 37f
4:18 7 11 mph 1017.1mb 39f 37f
4:12 8 11 mph 1017.1mb 39f 37f
4:06 8 13 mph 1017.1mb 39f 37f
4:00 7 10 mph 1017.1mb 39f 36f
3:54 5 9 mph 1017.1mb 39f 36f
3:48 6 10 mph 1017.2mb 39f 36f
3:42 6 9 mph 1017.2mb 39f 36f
3:36 6 9 mph 1017.2mb 39f 36f
3:30 6 9 mph 1017.3mb 39f 36f
3:24 5 8 mph 1017.4mb 39f 36f
3:18 5 8 mph 1017.4mb 39f 36f
3:12 5 9 mph 1017.5mb 39f 36f
3:06 5 10 mph 1017.6mb 39f 36f
3:00 6 8 mph 1017.6mb 39f 36f
2:54 5 8 mph 1017.6mb 39f 36f
2:48 5 9 mph 1017.7mb 39f -
2:42 7 11 mph 1017.7mb 39f -
2:36 5 10 mph 1017.8mb 39f -
2:30 3 9 mph 1017.8mb 39f 36f
2:24 5 8 mph 1017.8mb 39f 36f
2:18 6 9 mph 1017.8mb 39f 36f
2:12 7 11 mph 1017.8mb 39f 36f
2:06 7 10 mph 1017.8mb 39f 36f
2:00 6 11 mph 1017.9mb 39f 36f
1:54 6 9 mph 1017.9mb 39f 36f
1:48 6 10 mph 1018mb 39f 36f
1:42 8 11 mph 1017.9mb 39f 36f
1:36 6 8 mph 1017.9mb 39f 36f
1:30 5 9 mph 1018mb 39f 36f
1:24 7 10 mph 1018.1mb 39f 36f
1:18 6 8 mph 1018.1mb 39f 36f
1:12 6 8 mph 1018.1mb 39f 36f
1:06 6 8 mph 1018.2mb 39f 36f
1:00 6 8 mph 1018.2mb 39f 36f
12:54 7 8 mph 1018.3mb 39f 37f
12:48 7 10 mph 1018.3mb 39f 37f
12:42 7 9 mph 1018.3mb 39f 37f
12:36 7 10 mph 1018.3mb 39f 36f
12:30 6 10 mph 1018.4mb 39f 36f
12:24 6 7 mph 1018.5mb 39f 36f
12:18 5 9 mph 1018.6mb 39f 36f
12:12 6 10 mph 1018.7mb 39f 36f
12:06 5 10 mph 1018.7mb 39f 36f
12:00 5 7 mph 1018.7mb 39f 36f
dom 03/19 11:54 3 6 mph 1018.7mb 39f 36f
11:48 3 6 mph 1018.8mb 39f 36f
11:42 5 9 mph 1018.9mb 39f 37f
11:36 6 9 mph 1018.9mb 39f 37f
11:30 5 9 mph 1019mb 39f 37f
11:24 6 9 mph 1019.1mb 39f 37f
11:18 2 7 mph 1019.2mb 39f 37f
11:12 2 5 mph 1019.2mb 39f 37f
11:06 3 5 mph 1019.2mb 39f 37f
11:00 3 7 mph 1019.2mb 39f 36f
10:54 5 6 mph 1019.3mb 39f 36f
10:48 2 5 mph 1019.3mb 39f 36f
10:42 3 5 mph 1019.4mb 39f 36f
10:36 2 3 mph 1019.5mb 39f 36f
10:30  -  3 mph 1019.5mb 39f 36f
10:24 1 2 mph 1019.6mb 39f 36f
10:18 1 3 mph 1019.6mb 39f 36f
10:12 2 3 mph 1019.6mb 39f 36f
10:06 2 3 mph 1019.7mb 39f 36f
10:00 1 2 mph 1019.7mb 39f 36f
9:54 1 2 mph 1019.7mb 39f 36f
9:48 1 2 mph 1019.8mb 39f 36f
9:42 2
mph
1019.9mb 39f 36f
9:36 1 2 mph 1019.9mb 39f 37f
9:30  -  3 mph 1019.9mb 39f 37f
9:24 2 6 mph 1019.9mb 39f 37f
9:18 3 6 mph 1019.9mb 39f 38f
9:12 3 5 mph 1020mb 39f 37f
9:06 1 3 mph 1020mb 39f 37f
9:00 2 3 mph 1019.9mb 39f 37f
8:54 2 5 mph 1019.9mb 39f 38f
8:48 3 6 mph 1019.9mb 39f 38f
8:42 3 6 mph 1019.9mb 39f 38f
8:36 3 6 mph 1019.9mb 39f 38f
8:30 3 6 mph 1019.9mb 39f 38f
8:24 5 6 mph 1019.8mb 39f 38f
8:18 3 6 mph 1019.8mb 39f 38f
8:12 3 6 mph 1019.8mb 39f 38f
8:06 3 6 mph 1019.8mb 39f 38f
8:00 5 6 mph 1019.8mb 39f 39f
7:54 5 7 mph 1019.8mb 39f 39f
7:48 5 7 mph 1019.8mb 39f 39f
7:42 5 8 mph 1019.7mb 39f 39f
7:36 5 9 mph 1019.6mb 39f 39f
7:30 3 9 mph 1019.5mb 39f 39f
7:24 2 7 mph 1019.5mb 39f 39f
7:18 3 7 mph 1019.4mb 39f 39f
7:12 3 13 mph 1019.3mb 39f 40f
7:06 6 10 mph 1019.3mb 39f 40f
7:00 3 9 mph 1019.3mb 39f 40f
6:54 2 6 mph 1019.2mb 39f 40f
6:48 7 11 mph 1019.2mb 39f 40f
6:42 7 13 mph 1019.1mb 39f 40f
6:36 6 13 mph 1019mb 39f 40f
6:30 5 13 mph 1019mb 39f 40f
6:24 9 16 mph 1019mb 39f 40f
6:18 10 16 mph 1019mb 39f 40f
6:12 6 15 mph 1018.9mb 39f 40f
6:06 9 15 mph 1018.9mb 39f 40f
6:00 7 11 mph 1018.9mb 39f 40f
5:54 6 14 mph 1018.9mb 39f 40f
5:48 5 10 mph 1018.8mb 39f 40f
5:42 6 16 mph 1018.9mb 39f 40f
5:36 9 16 mph 1018.9mb 39f 40f
5:30 10 17 mph 1018.9mb 39f 40f
5:24 3 14 mph 1019mb 39f 40f
5:18 6 13 mph 1019mb 39f 40f
5:12 7 11 mph 1019.1mb 39f 40f
5:06 8 14 mph 1019.1mb 39f 40f
5:00 9 16 mph 1019.1mb 39f 40f
4:54 9 15 mph 1019.1mb 39f 40f
4:48 5 15 mph 1019.1mb 39f 40f
4:42 7 14 mph 1019.2mb 39f 40f
4:36 9 14 mph 1019.2mb 39f 39f
4:30 7 13 mph 1019.2mb 39f 39f
4:24 8 16 mph 1019.3mb 39f 40f
4:18 10 16 mph 1019.3mb 39f 39f
4:12 9 14 mph 1019.4mb 39f 39f
4:06 8 16 mph 1019.4mb 39f 40f
4:00 7 14 mph 1019.5mb 39f 39f
3:54 5 10 mph 1019.5mb 39f 39f
3:48 8 14 mph 1019.5mb 39f 39f
3:42 6 14 mph 1019.6mb 39f 40f
3:36 13 22 mph 1019.5mb 39f 39f
3:30 6 11 mph 1019.6mb 39f 40f
3:24 9 16 mph 1019.7mb 39f 39f
3:18 7 15 mph 1019.6mb 39f 39f
3:12 6 16 mph 1019.7mb 39f 39f
3:06 8 18 mph 1019.7mb 39f 39f
3:00 9 15 mph 1019.7mb 39f 39f
2:54 5 14 mph 1019.9mb 39f 39f
2:48 3 14 mph 1019.9mb 39f 39f
2:42 7 13 mph 1019.9mb 39f 39f
2:36 11 18 mph 1020mb 39f 38f
2:30 7 13 mph 1020mb 39f 38f
2:24 3 14 mph 1020.1mb 39f 39f
2:18 11 18 mph 1020.1mb 39f 38f
2:12 10 17 mph 1020.2mb 39f 39f
2:06 7 16 mph 1020.1mb 39f 39f
2:00 7 13 mph 1020.2mb 39f 39f
1:54 6 15 mph 1020.2mb 39f 39f
1:48 7 18 mph 1020.3mb 39f 39f
1:42 15 24 mph 1020.4mb 39f 38f
1:36 10 20 mph 1020.5mb 39f 38f
1:30 7 13 mph 1020.7mb 39f 39f
1:24 6 17 mph 1020.8mb 39f 39f
1:18 9 16 mph 1020.8mb 39f 38f
1:12 6 14 mph 1021mb 39f 38f
1:06 7 14 mph 1021.1mb 39f 38f
1:00 8 15 mph 1021.1mb 39f 38f
12:54 7 14 mph 1021.2mb 39f 38f
12:48 7 11 mph 1021.1mb 39f 38f
12:42 6 14 mph 1021.2mb 39f 38f
12:36 5 13 mph 1021.1mb 39f 38f
12:30 7 17 mph 1021.1mb 39f 38f
12:24 8 17 mph 1021.2mb 39f 38f
12:18 9 14 mph 1021.1mb 39f 38f
12:12 6 10 mph 1021.2mb 39f 38f
12:06 7 16 mph 1021.2mb 39f 38f
12:00 7 14 mph 1021.1mb 39f 39f
11:54 9 15 mph 1021.1mb 39f 38f
11:48 7 14 mph 1021mb 39f 39f
11:42 10 15 mph 1020.9mb 39f 39f
11:36 9 14 mph 1020.9mb 39f 39f
11:30 6 15 mph 1020.9mb 39f 39f
11:24 8 14 mph 1020.9mb 39f 39f
11:18 6 14 mph 1021mb 39f 39f
11:12 7 13 mph 1021mb 39f 39f
11:06 7 16 mph 1021mb 39f 38f
11:00 6 15 mph 1021.1mb 39f 38f
10:54 9 15 mph 1021mb 39f 38f
10:48 8 15 mph 1021.1mb 39f 37f
10:42 5 11 mph 1021.1mb 39f 37f
10:36 6 11 mph 1021.1mb 39f 37f
10:30 6 10 mph 1021.1mb 39f 36f
10:24 5 11 mph 1021.2mb 39f 36f
10:18 5 11 mph 1021.3mb 39f 36f
10:12 5 11 mph 1021.3mb 39f 36f
10:06 7 13 mph 1021.2mb 39f 35f
10:00 6 14 mph 1021.2mb 39f 35f
9:54 6 14 mph 1021.3mb 39f 35f
9:48 6 13 mph 1021.3mb 39f 35f
9:42 5 15 mph 1021.2mb 39f 35f
9:36 7 13 mph 1021.2mb 39f 35f
9:30 8 16 mph 1021.2mb 39f 35f
9:24 9 15 mph 1021.2mb 39f 35f
9:18 7 10 mph 1021.1mb 39f 35f
9:12 7 14 mph 1021.1mb 39f 35f
9:06 5 10 mph 1021.1mb 39f 36f
9:00 6 14 mph 1021.1mb 39f 35f
8:54 8 16 mph 1021.1mb 39f 35f
8:48 5 10 mph 1021.2mb 39f 35f
8:42 3 13 mph 1021.2mb 39f 34f
8:36 6 14 mph 1021.2mb 39f 34f
8:30 7 14 mph 1021.3mb 39f 34f
8:24 8 15 mph 1021.3mb 39f 34f
8:18 3 13 mph 1021.4mb 39f 34f
8:12 5 15 mph 1021.4mb 39f 34f
8:06 6 11 mph 1021.4mb 39f 34f
8:00 6 11 mph 1021.5mb 39f 34f
7:54 7 13 mph 1021.5mb 39f 33f
7:48 5 10 mph 1021.5mb 39f 34f
7:42 5 13 mph 1021.6mb 39f 33f
7:36 5 10 mph 1021.7mb 39f 33f
7:30 6 10 mph 1021.7mb 39f 33f
7:24 3 11 mph 1021.7mb 39f 34f
7:18 3 9 mph 1021.7mb 39f 34f
7:12 3 11 mph 1021.7mb 39f 34f
7:06 5 9 mph 1021.6mb 39f 34f
7:00 3 7 mph 1021.6mb 39f 34f
6:54 3 9 mph 1021.6mb 39f 34f
6:48 5 8 mph 1021.6mb 39f 34f
6:42 6 9 mph 1021.5mb 39f 34f
6:36 5 9 mph 1021.5mb 39f 34f